Weather WX

World > North America > United States > Ohio

Limaville, Ohio Regional Weather

Lat: 40.98N, Lon: 81.15W
Wx Zone: OHZ032
Warning FLW WEATHER ALERT - (More Info. Click Here) Warning
Feedback

Limaville, OH Regional Weather

Expires:201906241900;;012211
ASUS41 KCLE 241812
RWRCLE
OHIO REGIONAL WEATHER ROUNDUP
NATIONAL WEATHER SERVICE WILMINGTON, OH
200 PM EDT MON JUN 24 2019

NOTE: "FAIR" INDICATES FEW OR NO CLOUDS BELOW 12,000 FEET WITH NO
SIGNIFICANT WEATHER AND/OR OBSTRUCTIONS TO VISIBILITY.


OHZ009>014-019>023-028>033-038-089-241900-
   NORTHEAST OHIO
  
CITY           SKY/WX    TMP DP  RH WIND       PRES   REMARKS
CLE-HOPKINS    PTSUNNY   83  68  60 S14       29.75F                  
CLE-LAKEFRONT  FAIR      83  66  56 SE15G21   29.72F                  
CUY CO. ARPT   PTSUNNY   79  66  65 S9G17     29.75F                  
LORAIN-ELYRIA  FAIR      82  63  52 SW13G22   29.74F                  
ASHTABULA      FAIR      81  68  64 SW13      29.78S                  
AKRON-CANTON   PTSUNNY   83  65  54 SW14G22   29.79F                  
WOOSTER        PTSUNNY   85  69  58 SW14      29.79F                  
MANSFIELD      PTSUNNY   82  67  60 S18       29.78F                  
YOUNGSTOWN     CLOUDY    82  65  56 S9        29.80F                  
$$
 

SKY/WX - Weather  TMP - Temperature  DP - Dew Point  RH - Relative Humidity
WIND - Wind Direction/Speed PRES - Barometric Pressure VSB - Visibility
WCI - Wind Chill Index E13G22 Wind - East Wind 13 mph/Gusts of 22 mph